Nenana, AK

3:33 AM AKDT on August 26, 2016 (GMT -0800)
Nenana Municipal

Weather History for PANN - February, 2013

Change the Weather History Date:

Tuesday, February 19, 2013

  Actual Average Record
Temperature  
Mean Temperature 0 °F -  
Max Temperature 40 °F 4 °F 58 °F (1977)
Min Temperature -41 °F -18 °F -41 °F (2013)
Degree Days  
Heating Degree Days 66    
Moisture  
Dew Point -11 °F    
Average Humidity 65    
Maximum Humidity 92    
Minimum Humidity 54    
Precipitation  
Precipitation 0.08 in - - ()
Sea Level Pressure  
Sea Level Pressure 29.94 in    
Wind  
Wind Speed 2 mph (ENE)    
Max Wind Speed 12 mph    
Max Gust Speed 18 mph    
Visibility 7 miles    
Events      
Averages and records for this station are not official NWS values.
T = Trace of Precipitation, MM = Missing Value Source: NWS Daily Summary

Daily Weather History Graph

Daily Weather History Graph

Search for Another Location

Airport or City:

Trip Planner

Search our weather history database for the weather conditions in past years. The results will help you decide how hot, cold, wet, or windy it might be!

Date:

Astronomy

Feb. 19, 2013 Rise Set
Actual Time 8:38 AM AKST 5:43 PM AKST
Civil Twilight 7:47 AM AKST 6:34 PM AKST
Nautical Twilight 6:51 AM AKST 7:30 PM AKST
Astronomical Twilight 5:55 AM AKST 8:26 PM AKST
Moon 10:58 AM AKST (2/19) 5:41 AM AKST (2/19)
Length of Visible Light 10h 46m
Length of Day
9h 05m
Waxing Gibbous, 69% of the Moon is Illuminated
Feb 19
Waxing Gibbous
Feb 25
Full
Mar 4
Last Quarter
Mar 11
New
Mar 19
First Quarter

Hourly Weather History & Observations

Time (AKST) Temp. Windchill Dew Point Humidity Pressure Visibility Wind Dir Wind Speed Gust Speed Precip Events Conditions
12:53 AM -36.0 °F - - N/A% 30.20 in 10.0 mi Calm Calm - N/A   Clear
1:53 AM -36.9 °F - - N/A% 30.21 in 8.0 mi Calm Calm - N/A   Clear
3:53 AM -38.9 °F - - N/A% 30.18 in 10.0 mi Calm Calm - N/A   Clear
4:53 AM -38.9 °F - - N/A% 30.14 in 9.0 mi Calm Calm - N/A   Clear
5:53 AM -41.1 °F -60.3 °F - N/A% 30.13 in 2.5 mi SSW 5.8 mph - N/A   Clear
6:15 AM -40.0 °F - - N/A% 30.05 in 1.8 mi Calm Calm - N/A   Clear
6:22 AM -40.0 °F - - N/A% 30.05 in 2.5 mi Calm Calm - N/A   Clear
6:39 AM -40.0 °F - - N/A% 30.05 in 4.0 mi Calm Calm - N/A   Haze
6:53 AM -40.0 °F - - N/A% 30.12 in 3.0 mi Calm Calm - N/A   Clear
7:03 AM -40.0 °F - - N/A% 30.05 in 2.0 mi Calm Calm - N/A   Clear
7:24 AM -41.8 °F - - N/A% 30.04 in 1.8 mi Calm Calm - N/A   Clear
7:53 AM -41.1 °F - - N/A% 30.09 in 2.0 mi Calm Calm - N/A   Clear
8:11 AM -41.8 °F - - N/A% 30.00 in 3.0 mi Calm Calm - N/A   Clear
8:39 AM -41.8 °F - - N/A% 30.00 in 2.0 mi Calm Calm - N/A   Clear
8:53 AM -40.0 °F - - N/A% 30.06 in 2.0 mi Calm Calm - N/A   Clear
9:36 AM -38.2 °F - - N/A% 29.96 in 1.5 mi Calm Calm - N/A   Clear
9:53 AM -35.0 °F - - N/A% 30.02 in 2.5 mi Calm Calm - N/A   Clear
10:08 AM -31.0 °F - - N/A% 29.95 in 3.0 mi Calm Calm - N/A   Clear
10:53 AM -27.9 °F -39.8 °F -33.0 °F 77% 29.99 in 10.0 mi ENE 3.5 mph - N/A   Clear
11:53 AM -23.1 °F - -29.0 °F 74% 29.97 in 10.0 mi Calm Calm - N/A   Clear
12:53 PM -18.0 °F - -25.1 °F 70% 29.93 in 10.0 mi Calm Calm - N/A   Clear
1:53 PM -11.9 °F - -20.9 °F 64% 29.89 in 10.0 mi Calm Calm - N/A   Clear
3:53 PM -2.9 °F -15.0 °F -15.0 °F 56% 29.79 in 10.0 mi ENE 5.8 mph - N/A   Clear
4:53 PM -0.0 °F -13.0 °F -13.0 °F 54% 29.75 in 10.0 mi NE 6.9 mph - N/A   Clear
5:53 PM -0.0 °F -15.3 °F -13.0 °F 54% 29.72 in 10.0 mi NE 9.2 mph - N/A   Clear
6:53 PM -2.0 °F -15.4 °F -14.1 °F 57% 29.70 in 10.0 mi ENE 6.9 mph - N/A   Clear
7:53 PM -0.9 °F -17.4 °F -14.1 °F 54% 29.68 in 10.0 mi NE 10.4 mph - N/A   Clear
8:53 PM -2.0 °F -17.7 °F -14.1 °F 57% 29.66 in 10.0 mi NE 9.2 mph 18.4 mph N/A   Clear
9:53 PM -2.0 °F -16.6 °F -14.1 °F 57% 29.64 in 10.0 mi ENE 8.1 mph - N/A   Clear
10:53 PM -2.9 °F -15.0 °F -15.0 °F 56% 29.62 in 10.0 mi ENE 5.8 mph - N/A   Clear
11:53 PM -9.9 °F - -18.0 °F 68% 29.61 in 10.0 mi Calm Calm - N/A   Clear